• en France
  • Liste des pays
  • À 7 jours
  • Température de l'eau
  • Carte satellitaire
  • Carte météo
  • Widgets météo
  • user-avatar
    Se connecter

    Météo par heure à Coleraine

    Ce jour, 16 Janvier, Mardi

    Heure Température Précipitation Vent Pression Humidité
    00:00 0°C° 0 mm 9 m/s 737 mmHg 78%
    01:00 0°C° 0,3 mm 10 m/s 738 mmHg 77%
    02:00 0°C° 0,3 mm 10 m/s 738 mmHg 75%
    03:00 -1°C° 0,3 mm 11 m/s 738 mmHg 73%
    04:00 -1°C° 0,3 mm 11 m/s 738 mmHg 73%
    05:00 -2°C° 0,3 mm 11 m/s 738 mmHg 73%
    06:00 -1°C° 0 mm 9 m/s 738 mmHg 81%
    07:00 -2°C° 0,4 mm 10 m/s 737 mmHg 80%
    08:00 -2°C° 0,4 mm 10 m/s 737 mmHg 79%
    09:00 -1°C° 0,4 mm 11 m/s 737 mmHg 78%
    10:00 -1°C° 0,5 mm 11 m/s 737 mmHg 77%
    11:00 -1°C° 0,5 mm 11 m/s 737 mmHg 77%
    12:00 -1°C° 0 mm 9 m/s 737 mmHg 82%
    13:00 -2°C° 0,4 mm 10 m/s 737 mmHg 79%
    14:00 -2°C° 0,4 mm 10 m/s 737 mmHg 76%
    15:00 -2°C° 0,4 mm 11 m/s 737 mmHg 74%
    16:00 -2°C° 0,5 mm 11 m/s 737 mmHg 76%
    17:00 -3°C° 0,5 mm 11 m/s 737 mmHg 78%
    18:00 -3°C° 0,5 mm 11 m/s 736 mmHg 79%
    19:00 -3°C° 0,4 mm 11 m/s 737 mmHg 78%
    20:00 -3°C° 0,4 mm 11 m/s 737 mmHg 78%
    21:00 -3°C° 0,4 mm 11 m/s 737 mmHg 77%
    22:00 -3°C° 0,3 mm 11 m/s 738 mmHg 76%
    23:00 -2°C° 0,3 mm 11 m/s 739 mmHg 76%

    Demain, 17 Janvier, Mercredi

    Heure Température Précipitation Vent Pression Humidité
    00:00 -2°C° 0,3 mm 11 m/s 740 mmHg 76%
    01:00 -2°C° 0,4 mm 12 m/s 741 mmHg 76%
    02:00 -1°C° 0,4 mm 12 m/s 742 mmHg 77%
    03:00 -1°C° 0,4 mm 12 m/s 743 mmHg 77%
    04:00 -1°C° 0,1 mm 12 m/s 744 mmHg 79%
    05:00 -1°C° 0,1 mm 11 m/s 745 mmHg 80%
    06:00 -1°C° 0,1 mm 11 m/s 746 mmHg 81%
    07:00 -1°C° 0,5 mm 11 m/s 746 mmHg 82%
    08:00 -2°C° 0,5 mm 11 m/s 747 mmHg 82%
    09:00 -2°C° 0,5 mm 11 m/s 748 mmHg 82%
    10:00 -2°C° 0,2 mm 11 m/s 748 mmHg 83%
    11:00 -2°C° 0,2 mm 11 m/s 749 mmHg 83%
    12:00 -1°C° 0,2 mm 11 m/s 749 mmHg 83%
    13:00 0°C° 0,2 mm 10 m/s 749 mmHg 85%
    14:00 0°C° 0,2 mm 9 m/s 749 mmHg 86%
    15:00 0°C° 0,2 mm 9 m/s 749 mmHg 88%
    16:00 0°C° 0,4 mm 8 m/s 748 mmHg 90%
    17:00 -1°C° 0,4 mm 7 m/s 747 mmHg 92%
    18:00 -1°C° 0,4 mm 6 m/s 747 mmHg 94%
    19:00 0°C° 0,7 mm 5 m/s 745 mmHg 95%
    20:00 0°C° 0,7 mm 5 m/s 744 mmHg 96%
    21:00 0°C° 0,7 mm 4 m/s 742 mmHg 97%
    22:00 0°C° 0,5 mm 4 m/s 742 mmHg 97%
    23:00 0°C° 0,5 mm 4 m/s 742 mmHg 97%

    Après-demain, 18 Janvier, Jeudi

    Heure Température Précipitation Vent Pression Humidité
    00:00 0°C° 0,5 mm 4 m/s 742 mmHg 97%
    01:00 0°C° 0,3 mm 5 m/s 742 mmHg 96%
    02:00 -1°C° 0,3 mm 6 m/s 743 mmHg 94%
    03:00 -1°C° 0,3 mm 7 m/s 743 mmHg 93%
    04:00 -1°C° 0,3 mm 7 m/s 743 mmHg 93%
    05:00 -1°C° 0,3 mm 6 m/s 743 mmHg 93%
    06:00 -1°C° 0,3 mm 6 m/s 743 mmHg 93%
    07:00 -1°C° 0,4 mm 6 m/s 743 mmHg 93%
    08:00 -1°C° 0,4 mm 6 m/s 743 mmHg 93%
    09:00 -1°C° 0,4 mm 6 m/s 744 mmHg 93%
    10:00 -1°C° 0,3 mm 6 m/s 744 mmHg 92%
    11:00 -1°C° 0,3 mm 6 m/s 744 mmHg 91%
    12:00 -1°C° 0,3 mm 7 m/s 745 mmHg 90%
    13:00 -1°C° 0,2 mm 7 m/s 745 mmHg 89%
    14:00 -1°C° 0,2 mm 7 m/s 745 mmHg 88%
    15:00 -1°C° 0,2 mm 7 m/s 745 mmHg 87%
    16:00 -1°C° 0,3 mm 7 m/s 746 mmHg 87%
    17:00 -1°C° 0,3 mm 7 m/s 746 mmHg 86%
    18:00 -2°C° 0,3 mm 7 m/s 746 mmHg 86%
    19:00 -2°C° 0,2 mm 7 m/s 746 mmHg 86%
    20:00 -2°C° 0,2 mm 7 m/s 746 mmHg 86%
    21:00 -2°C° 0,2 mm 7 m/s 746 mmHg 87%
    22:00 -2°C° 0,3 mm 8 m/s 746 mmHg 86%
    23:00 -2°C° 0,3 mm 8 m/s 746 mmHg 86%

    19 Janvier, Vendredi

    Heure Température Précipitation Vent Pression Humidité
    00:00 -2°C° 0,3 mm 8 m/s 746 mmHg 86%
    01:00 -2°C° 0,3 mm 8 m/s 746 mmHg 86%
    02:00 -2°C° 0,3 mm 8 m/s 746 mmHg 86%
    03:00 -2°C° 0,3 mm 8 m/s 746 mmHg 86%
    04:00 -4°C° 0,3 mm 8 m/s 746 mmHg 85%
    05:00 -4°C° 0,3 mm 9 m/s 746 mmHg 84%
    06:00 -4°C° 0,3 mm 9 m/s 746 mmHg 84%
    07:00 -4°C° 0,4 mm 9 m/s 746 mmHg 84%
    08:00 -2°C° 0,4 mm 8 m/s 746 mmHg 85%
    09:00 -2°C° 0,4 mm 8 m/s 747 mmHg 85%
    10:00 -2°C° 0,3 mm 8 m/s 747 mmHg 85%
    11:00 -1°C° 0,3 mm 8 m/s 747 mmHg 85%
    12:00 -1°C° 0,3 mm 9 m/s 747 mmHg 84%
    13:00 -1°C° 0,6 mm 9 m/s 747 mmHg 86%
    14:00 -2°C° 0,6 mm 10 m/s 747 mmHg 87%
    15:00 -2°C° 0,6 mm 10 m/s 747 mmHg 89%
    16:00 -2°C° 0,2 mm 10 m/s 748 mmHg 87%
    17:00 -2°C° 0,2 mm 10 m/s 748 mmHg 85%
    18:00 -1°C° 0,2 mm 9 m/s 749 mmHg 83%
    19:00 -1°C° 0,3 mm 9 m/s 749 mmHg 84%
    20:00 -1°C° 0,3 mm 9 m/s 749 mmHg 86%
    21:00 -1°C° 0,3 mm 8 m/s 750 mmHg 87%
    22:00 -1°C° 0,3 mm 8 m/s 750 mmHg 87%
    23:00 -1°C° 0,3 mm 9 m/s 750 mmHg 86%

    20 Janvier, Samedi

    Heure Température Précipitation Vent Pression Humidité
    00:00 -1°C° 0,3 mm 9 m/s 750 mmHg 86%
    01:00 -1°C° 0,1 mm 8 m/s 750 mmHg 85%
    02:00 -1°C° 0,1 mm 8 m/s 751 mmHg 84%
    03:00 -2°C° 0,1 mm 7 m/s 751 mmHg 84%
    04:00 -2°C° 0,1 mm 7 m/s 751 mmHg 85%
    05:00 -2°C° 0,1 mm 6 m/s 752 mmHg 86%
    06:00 -2°C° 0,1 mm 6 m/s 752 mmHg 87%
    07:00 -1°C° 0 mm 5 m/s 753 mmHg 87%
    08:00 -1°C° 0 mm 5 m/s 753 mmHg 87%
    09:00 -1°C° 0 mm 4 m/s 754 mmHg 86%
    10:00 0°C° 0 mm 3 m/s 754 mmHg 88%
    11:00 +2°C° 0 mm 2 m/s 755 mmHg 89%
    12:00 +3°C° 0 mm 1 m/s 755 mmHg 90%
    13:00 +3°C° 0 mm 1 m/s 755 mmHg 91%
    14:00 +3°C° 0 mm 1 m/s 754 mmHg 91%
    15:00 +3°C° 0 mm 1 m/s 754 mmHg 92%
    16:00 +2°C° 0,1 mm 2 m/s 754 mmHg 92%
    17:00 +1°C° 0,1 mm 3 m/s 754 mmHg 91%
    18:00 0°C° 0,1 mm 4 m/s 753 mmHg 91%
    19:00 0°C° 0,7 mm 5 m/s 753 mmHg 91%
    20:00 0°C° 0,7 mm 5 m/s 753 mmHg 92%
    21:00 -1°C° 0,7 mm 6 m/s 752 mmHg 92%
    22:00 -1°C° 0,5 mm 6 m/s 752 mmHg 93%
    23:00 -1°C° 0,5 mm 7 m/s 751 mmHg 95%

    21 Janvier, Dimanche

    Heure Température Précipitation Vent Pression Humidité
    00:00 -1°C° 0,5 mm 8 m/s 751 mmHg 96%
    01:00 -1°C° 0,1 mm 8 m/s 751 mmHg 96%
    02:00 -1°C° 0,1 mm 8 m/s 750 mmHg 97%
    03:00 -1°C° 0,1 mm 8 m/s 750 mmHg 97%
    04:00 0°C° 0,1 mm 8 m/s 750 mmHg 97%
    05:00 0°C° 0,1 mm 8 m/s 750 mmHg 98%
    06:00 0°C° 0,1 mm 8 m/s 750 mmHg 98%
    07:00 0°C° 0,1 mm 8 m/s 750 mmHg 98%
    08:00 0°C° 0,1 mm 7 m/s 750 mmHg 98%
    09:00 0°C° 0,1 mm 7 m/s 751 mmHg 99%
    10:00 +2°C° 0,1 mm 6 m/s 751 mmHg 99%
    11:00 +2°C° 0,1 mm 6 m/s 751 mmHg 99%
    12:00 +2°C° 0,1 mm 5 m/s 752 mmHg 99%
    13:00 +2°C° 0,1 mm 5 m/s 752 mmHg 98%
    14:00 +2°C° 0,1 mm 5 m/s 752 mmHg 98%
    15:00 +2°C° 0,1 mm 5 m/s 752 mmHg 97%
    16:00 +2°C° 0 mm 5 m/s 753 mmHg 96%
    17:00 +1°C° 0 mm 5 m/s 753 mmHg 96%
    18:00 +1°C° 0 mm 5 m/s 754 mmHg 95%
    19:00 0°C° 0 mm 5 m/s 754 mmHg 95%
    20:00 0°C° 0 mm 5 m/s 755 mmHg 95%
    21:00 0°C° 0 mm 4 m/s 755 mmHg 95%
    22:00 0°C° 0 mm 4 m/s 756 mmHg 95%
    23:00 0°C° 0 mm 4 m/s 756 mmHg 95%
    Voir plus